User: anonymous   Login
Location: Unspecified
(0.0000°N, 0.0000°E)
Time: 14:06:29
(UTC+01:00)
Language:

Cosmos 1538 Rocket - Orbit

View from above orbital plane
View from above orbital plane
View from above satellite
View from above satellite

Ground track
Ground track

The orbit data is extracted from the following two-line orbital elements,

1 14760U 84019B   15030.09217478  .00000285  00000-0  10730-3 0  5251
2 14760 074.0435 275.9570 0028268 347.0534 167.2815 14.35625273618856
Epoch (UTC): 30 January 2015 02:12:43
Eccentricity: 0.0028268
inclination: 74.0435°
perigee height: 753 km
apogee height: 793 km
right ascension of ascending node: 275.9570°
argument of perigee: 347.0534°
revolutions per day: 14.35625273
mean anomaly at epoch: 167.2815°
orbit number at epoch: 61885

The dashed part of the orbit path shows where the satellite is in the earth's shadow,  

DLR